sat.trackr.live / text

‹ back to catalog

STARLINK-35820

NORAD 66597 · 2025-270K

PAYLOAD ACTIVE UNKNOWN

§ Identity

Operator
Country
US
Launch date
2025-11-22
Launch site
AFETR
Launch vehicle
Mass (kg)
RCS (m²)

Purposes: comms

External: N2YO · Heavens-Above · Gunter

§ Orbital elements

Epoch: 2026-09-20T15:56:49.750944Z

Period
94.27 min
Inclination
43.0005°
Eccentricity
0.0001443
Mean motion
15.27586408 rev/d
Perigee alt
482.0 km
Apogee alt
484.0 km
Semi-major
6,861.2 km
B*
3.3310e-4
RAAN
35.1631°
Arg perigee
279.2361°
Mean anomaly
80.8327°
Rev number
4,763

§ Raw data

STARLINK-358201 66597U 25270K   26263.66446471  .00008917  00000+0  33310-3 0  99932 66597  43.0005  35.1631 0001443 279.2361  80.8327 15.27586408 47632

JSON: /api/v1/satellites/66597 · /tle

For live sub-satellite position, see the globe view (requires WebGL).

§ Visibility from observer

Set your observer location to see the next 7 days of passes ≥ 10°. The values pass through the URL so the page stays shareable.

No JS? Fill the form by hand. The geolocation button needs JavaScript.